Weather History for Pineville, WV

Change the Weather History Date:

Wednesday, April 30, 2014

  Actual Average (KBKW) Record (KBKW)
Temperature  
Mean Temperature 69 °F 56 °F  
Max Temperature 82 °F 67 °F 86 °F (1899)
Min Temperature 56 °F 45 °F 28 °F (2008)
Degree Days  
Heating Degree Days 0 9  
Month to date heating degree days 395  
Since 1 July heating degree days 5109  
Cooling Degree Days 4 0  
Month to date cooling degree days 9  
Year to date cooling degree days 10  
Growing Degree Days 19 (Base 50)    
Moisture  
Dew Point 58 °F    
Average Humidity 75    
Maximum Humidity 100    
Minimum Humidity 38    
Precipitation  
Precipitation 0.00 in 0.12 in 1.22 in (1909)
Month to date precipitation 3.36  
Year to date precipitation 12.50  
Snow  
Snow 0.00 in - - ()
Month to date snowfall  
Since 1 September snowfall  
Snow Depth -    
Sea Level Pressure  
Sea Level Pressure 29.91 in    
Wind  
Wind Speed - (North)    
Max Wind Speed -    
Max Gust Speed -    
Visibility 10 miles    
Events Rain    
T = Trace of Precipitation, MM = Missing Value Source: NWS Daily Summary

Daily Weather History Graph

Daily Weather History Graph

Search for Another Location

Airport:

Trip Planner

Search our weather history database for the weather conditions in past years. The results will help you decide how hot, cold, wet, or windy it might be!

Date:

Astronomy

Apr. 30, 2014 Rise Set
Actual Time 6:32 AM EDT 8:15 PM EDT
Civil Twilight 6:03 AM EDT 8:43 PM EDT
Nautical Twilight 5:30 AM EDT 9:17 PM EDT
Astronomical Twilight 4:54 AM EDT 9:53 PM EDT
Moon 7:32 AM EDT (4/30) 9:52 PM EDT (4/30)
Length of Visible Light 14h 39m
Length of Day
13h 43m
New Moon, 2% of the Moon is Illuminated
Apr 30
New Moon
May 6
First Quarter
May 14
Full
May 21
Last Quarter
May 28
New

Hourly Weather History & Observations

Time (EDT) Temp. Heat Index Dew Point Humidity Pressure Visibility Wind Dir Wind Speed Gust Speed Precip Events Conditions
12:15 AM 62.4 °F - 57.4 °F 84% 29.97 in 10.0 mi North - - N/A   Clear
12:35 AM 62.4 °F - 57.2 °F 83% 29.98 in 10.0 mi North - - N/A   Clear
12:55 AM 62.1 °F - 57.0 °F 84% 29.98 in 10.0 mi North - - N/A   Clear
1:15 AM 61.7 °F - 56.8 °F 84% 29.97 in 10.0 mi North - - N/A   Clear
1:35 AM 61.9 °F - 56.7 °F 83% 29.97 in 10.0 mi North - - N/A   Scattered Clouds
1:55 AM 62.6 °F - 56.8 °F 81% 29.96 in 10.0 mi North - - N/A   Mostly Cloudy
2:15 AM 62.4 °F - 57.2 °F 83% 29.95 in 10.0 mi North - - N/A   Overcast
2:35 AM 62.6 °F - 57.0 °F 82% 29.94 in 10.0 mi North - - N/A   Overcast
2:55 AM 62.6 °F - 57.2 °F 82% 29.92 in 10.0 mi North - - N/A   Overcast
3:15 AM 63.0 °F - 57.4 °F 82% 29.92 in 10.0 mi North - - N/A   Overcast
3:35 AM 62.2 °F - 57.4 °F 84% 29.92 in 10.0 mi North - - N/A   Overcast
3:55 AM 63.0 °F - 57.4 °F 82% 29.91 in 10.0 mi North - - N/A   Scattered Clouds
4:15 AM 60.4 °F - 57.4 °F 90% 29.91 in 10.0 mi North - - N/A   Clear
4:35 AM 58.3 °F - 56.5 °F 94% 29.91 in 10.0 mi North - - N/A   Clear
4:55 AM 59.7 °F - 57.4 °F 92% 29.91 in 10.0 mi North - - N/A   Clear
5:15 AM 61.5 °F - 57.7 °F 87% 29.91 in 10.0 mi North - - N/A   Clear
5:35 AM 61.9 °F - 58.1 °F 87% 29.91 in 10.0 mi North - - N/A   Scattered Clouds
5:55 AM 64.2 °F - 58.3 °F 81% 29.91 in 10.0 mi North - - N/A   Scattered Clouds
6:15 AM 63.9 °F - 58.5 °F 83% 29.91 in 10.0 mi North - - N/A   Mostly Cloudy
6:35 AM 64.2 °F - 58.5 °F 82% 29.91 in 10.0 mi North - - N/A   Scattered Clouds
6:55 AM 64.6 °F - 58.5 °F 80% 29.91 in 10.0 mi North - - N/A   Scattered Clouds
7:15 AM 64.8 °F - 58.5 °F 80% 29.91 in 10.0 mi North - - N/A   Overcast
7:35 AM 64.8 °F - 58.5 °F 80% 29.91 in 10.0 mi North - - N/A   Overcast
7:55 AM 64.9 °F - 58.6 °F 80% 29.91 in 10.0 mi North - - N/A   Overcast
8:15 AM 65.3 °F - 59.0 °F 80% 29.90 in 10.0 mi North - - N/A   Overcast
8:35 AM 65.3 °F - 59.2 °F 81% 29.90 in 10.0 mi North - - N/A Rain Light Rain
8:55 AM 64.6 °F - 60.8 °F 88% 29.90 in 10.0 mi North - - N/A   Mostly Cloudy
9:15 AM 66.4 °F - 60.1 °F 80% 29.90 in 10.0 mi North - - N/A   Mostly Cloudy
9:35 AM 68.2 °F - 59.9 °F 75% 29.89 in 10.0 mi North - - N/A   Scattered Clouds
9:55 AM 69.8 °F - 59.9 °F 71% 29.89 in 10.0 mi North - - N/A   Scattered Clouds
10:15 AM 70.0 °F - 60.4 °F 72% 29.89 in 10.0 mi North - - N/A   Mostly Cloudy
10:35 AM 72.0 °F - 60.4 °F 67% 29.89 in 10.0 mi North - - N/A   Scattered Clouds
10:55 AM 74.1 °F - 59.7 °F 61% 29.89 in 10.0 mi North - - N/A   Clear
11:15 AM 74.8 °F - 59.7 °F 59% 29.88 in 10.0 mi North - - N/A   Scattered Clouds
11:35 AM 75.6 °F - 59.2 °F 57% 29.88 in 10.0 mi North - - N/A   Clear
11:55 AM 76.3 °F - 59.5 °F 56% 29.89 in 10.0 mi North - - N/A   Scattered Clouds
12:15 PM 77.0 °F - 59.5 °F 55% 29.89 in 10.0 mi North - - N/A   Mostly Cloudy
12:35 PM 77.9 °F - 59.2 °F 52% 29.87 in 10.0 mi North - - N/A   Scattered Clouds
12:55 PM 78.1 °F - 58.3 °F 50% 29.87 in 10.0 mi North - - N/A   Scattered Clouds
1:15 PM 77.9 °F - 57.6 °F 49% 29.85 in 10.0 mi North - - N/A   Clear
1:35 PM 78.6 °F - 57.7 °F 49% 29.84 in 10.0 mi North - - N/A   Clear
1:55 PM 79.2 °F - 57.6 °F 47% 29.83 in 10.0 mi North - - N/A   Clear
2:15 PM 79.0 °F - 57.2 °F 47% 29.83 in 10.0 mi North - - N/A   Clear
2:35 PM 79.0 °F - 56.7 °F 46% 29.82 in 10.0 mi North - - N/A   Clear
2:55 PM 79.7 °F - 57.6 °F 47% 29.82 in 10.0 mi North - - N/A   Clear
3:15 PM 79.7 °F - 56.5 °F 45% 29.83 in 10.0 mi North - - N/A   Clear
3:55 PM 80.1 °F 80.1 °F 55.0 °F 42% 29.82 in 10.0 mi North - - N/A   Mostly Cloudy
4:15 PM 82.4 °F 81.7 °F 55.0 °F 39% 29.82 in 10.0 mi North - - N/A   Mostly Cloudy
4:35 PM 82.8 °F 81.9 °F 54.5 °F 38% 29.81 in 10.0 mi North - - N/A   Scattered Clouds
4:55 PM 82.4 °F 81.6 °F 54.1 °F 38% 29.81 in 10.0 mi North - - N/A   Scattered Clouds
5:15 PM 80.2 °F 80.2 °F 54.3 °F 41% 29.82 in 10.0 mi North - - N/A   Overcast
5:35 PM 79.0 °F - 60.1 °F 52% 29.82 in 10.0 mi North - - N/A   Overcast
5:55 PM 73.6 °F - 63.0 °F 69% 29.85 in 10.0 mi North - - N/A   Overcast
6:15 PM 68.5 °F - 61.7 °F 79% 29.88 in 10.0 mi North - - N/A Rain Light Rain
6:35 PM 63.7 °F - 60.6 °F 90% 29.90 in 7.0 mi North - - N/A Rain Light Rain
6:55 PM 62.4 °F - 58.6 °F 87% 29.90 in 10.0 mi North - - N/A Rain Light Rain
7:15 PM 61.7 °F - 56.8 °F 84% 29.92 in 10.0 mi North - - N/A   Overcast
7:35 PM 60.8 °F - 56.3 °F 85% 29.92 in 10.0 mi North - - N/A   Overcast
7:55 PM 60.3 °F - 55.9 °F 86% 29.95 in 10.0 mi North - - N/A Rain Rain
8:15 PM 57.9 °F - 56.3 °F 94% 29.95 in 10.0 mi North - - N/A Rain Light Rain
8:35 PM 57.2 °F - 56.3 °F 97% 29.98 in 10.0 mi North - - N/A Rain Rain
8:55 PM 56.7 °F - 56.1 °F 98% 29.98 in 10.0 mi North - - N/A   Overcast
9:15 PM 56.3 °F - 56.1 °F 99% 29.97 in 10.0 mi North - - N/A   Overcast
9:35 PM 56.5 °F - 56.5 °F 100% 30.00 in 7.0 mi North - - N/A Rain Rain
10:15 PM 56.7 °F - 56.7 °F 100% 30.01 in 4.0 mi North - - N/A Rain Heavy Rain
10:35 PM 56.3 °F - 56.3 °F 100% 29.99 in 5.0 mi North - - N/A   Drizzle
10:55 PM 56.3 °F - 56.3 °F 100% 29.99 in 10.0 mi North - - N/A   Light Drizzle
11:15 PM 56.3 °F - 56.3 °F 100% 29.98 in 10.0 mi North - - N/A   Light Drizzle
11:35 PM 56.3 °F - 56.3 °F 100% 29.98 in 10.0 mi North - - N/A Rain Light Rain
11:55 PM 56.3 °F - 56.3 °F 100% 29.97 in 7.0 mi North - - N/A Rain Rain